Location: Leuk
(46.3174°N, 7.6341°E)
Time: 14:17:42
(UTC+00:00)

Cosmos 1437 Rocket - Pass Details

Date: 09 March 2021
Orbit: 501 x 565 km, 81.2° (Epoch: 19 April)

Event Time Altitude Azimuth Distance (km) Brightness Sun altitude
Rises 04:27:16 0° 188° (S) 2,738 6.2 -15.7°
Reaches altitude 10° 04:29:26 10° 188° (S) 1,841 5.3 -15.3°
Maximum altitude 04:33:30 87° 104° (ESE) 560 2.8 -14.6°
Drops below altitude 10° 04:37:33 10° 12° (NNE) 1,824 5.7 -14.0°
Sets 04:39:42 0° 12° (NNE) 2,711 6.6 -13.6°
